Other Surface Observations
Issued by NWS

Home | Current Version | Previous Version | Text Only | Print | Product List | Glossary On
Versions: 1 2 3 4 5 6 7 8 9 10 11 12 13 14 15 16 17 18 19 20 21 22 23 24 25 26 27 28 29 30 31 32 33 34 35 36 37 38 39 40 41 42 43 44 45 46 47 48 49 50
000
SXUS52 KTAE 231118
OSOTAE
OSOTAE
North Florida/South Alabama/Southwest Georgia Weather Roundup
National Weather Service Tallahassee Florida
700 AM EDT THU OCT 23 2014

Note: "fair" indicates few or no clouds below 12,000 feet with no
significant weather and/or obstructions to visibility.

!FLZ017-115-028-034-025-231200
...North Florida...

CITY           SKY/WX    TMP DP  RH WIND       PRES   REMARKS
TALLAHASSEE    CLEAR     44  40  85 CALM      30.05R
APALACHICOLA   CLEAR     54  47  77 NE7       30.04R
PERRY          CLEAR     46  45  93 CALM      30.06R
CROSS CITY       N/A     45  42  89 CALM      30.04R
JACKSONVILLE   CLEAR     53  46  77 N8        30.04R
$$

!FLZ112-006-005-002-011-231200
...Florida Panhandle...

CITY           SKY/WX    TMP DP  RH WIND       PRES   REMARKS
MARIANNA       CLEAR     45  44  97 CALM      30.07R
BONIFAY        NOT AVBL
PANAMA CITY NW FAIR      48  44  86 N5        30.04S
TYNDALL AFB    CLEAR     54  47  77 E5        30.05S
TYND DRONE APT FAIR      52  48  86 MISG      30.03S
DE FUNIAK SPR  FAIR      49  44  83 N7        30.08R
EGLIN AFB      CLEAR     49  44  82 NE7       30.07R
DESTIN         CLEAR     56  48  74 N8        30.07R
HURLBURT       CLEAR     46  40  79 N7        30.06R WCI  43
CRESTVIEW      CLEAR     44  42  93 CALM      30.09R
PENSACOLA      CLEAR     54  45  71 NE9       30.07R
$$

!ALZ063-066-231200
...South Alabama...

CITY           SKY/WX    TMP DP  RH WIND       PRES   REMARKS
DOTHAN         CLEAR     42  40  92 NE5       30.11S WCI  39
OZARK CAIRNS   CLEAR     44  41  91 NE6       30.07S WCI  40
FT RUCKER HELI CLEAR     41  39  93 CALM      30.07S
RUCKER HELI 3  FAIR      45  43  94 N5        30.10R WCI  42
RUCKER HELI 2  FAIR      47  42  83 N5        30.08S WCI  45
FLORALA APT    CLEAR     44  41  89 CALM      30.10R
ANDALUSIA      CLEAR     50  42  74 CALM      30.09R
TROY           CLEAR     38  36  92 CALM      30.12R
EUFALA         FAIR      41  39  93 CALM      30.09R
MOBILE         CLEAR     48  44  86 NE7       30.08R WCI  45
$$

!GAZ120>161-231200
...Southwest and South Central Georgia...

CITY           SKY/WX    TMP DP  RH WIND       PRES   REMARKS
THOMASVILLE    FAIR      48  48 100 CALM      30.07R
BAINBRIDGE     CLEAR     52  48  87 CALM      30.08R
MOODY AFB      CLEAR     47  43  85 NE9       30.06S WCI  42
VALDOSTA       CLEAR     43  39  86 CALM      30.05F
MOULTRIE       CLEAR     50  45  81 NE5       30.08R
BLAKELY        CLEAR     43  43 100 CALM        N/A
ALBANY         CLEAR     46  44  93 CALM      30.11R
TIFTON         FAIR      47  43  84 NE3       30.08R
FITZGERALD     FAIR      49  42  77 E3        30.11R
CORDELE        FAIR      44  42  90 NE5       30.11R WCI  42
AMERICUS       FAIR      43  43 100 NE5       30.12R WCI  40
HOMERVILLE     FAIR      46  45  93 NE3       30.08S
$$

!GMZ750-755-770-775-231200
...Coastal and Buoy Obs...

STATION/POSITION TIME  TEMP    WIND        PRES    VSBY  WAVE
                       AIR SEA DIR/SP/G                  HT/PER
                 (UTC) (F)     (DEG/KT/KT) (MB)    (MI)  (FT/S)
KEATON BEACH     1100   50      30/  5/  7 1017.6R
CEDAR KEY        1100   58      40/  9/ 13 1016.9R
C TOWER          1100   68      80/ 15/ 17 1016.8R
APALACHICOLA BUO 1100   71 81   70/ 17/ 21 1015.4R         4/ 6
PANAMA CITY BUOY 1001   73 80   70/ 16/ 19 1015.4R         6/ 6
MOBILE BUOY      0956   72 78   60/ 16/ 17 1017.1          4/ 5
ORANGE BCH AL BU 1100   66 78   40/ 16/ 17 1017.1R         3/ 5
$$



USA.gov is the U.S. government's official web portal to all federal, state and local government web resources and services.